Regional Weather Roundup
Issued by NWS

Home | Current Version | Previous Version | Text Only | Print | Product List | Glossary On
Versions: 1 2 3 4 5 6 7 8 9 10 11 12 13 14 15 16 17 18 19 20 21 22 23 24 25 26 27 28 29 30 31 32 33 34 35 36 37 38 39 40 41 42 43 44 45 46 47 48 49 50
000
ASUS45 KREV 281510
RWRNV
NEVADA REGIONAL WEATHER ROUNDUP
NATIONAL WEATHER SERVICE RENO NV
800 AM PDT MON JUL 28 2014

NOTE: "FAIR" INDICATES FEW OR NO CLOUDS BELOW 12,000 FEET WITH NO
SIGNIFICANT WEATHER AND/OR OBSTRUCTIONS TO VISIBILITY.

NVZ001-003-004-281600-
WESTERN NEVADA

CITY           SKY/WX    TMP DP  RH WIND       PRES   REMARKS
RENO           PTSUNNY   72  40  31 CALM      30.23R
CARSON CITY    FAIR      66  46  48 CALM      30.25R
SLIDE MTN        N/A     59  34  38 CALM        N/A
PYRAMID LAKE     N/A     77 N/A N/A W6          N/A
FALLON         PTSUNNY   78  42  27 S5        30.16R
LOVELOCK       PTSUNNY   73  34  23 CALM      30.15R
HAWTHORNE      SUNNY     79  46  31 CALM      30.19R
$$

NVZ002-CAZ072-073-281600-
NORTHERN AND CENTRAL SIERRA

CITY           SKY/WX    TMP DP  RH WIND       PRES   REMARKS
S. LAKE TAHOE  SUNNY     60  43  53 S3        30.36R
TRUCKEE        PTSUNNY   55  39  54 CALM      30.35S
SQUAW VLY 8000 NOT AVBL
SUSANVILLE     SUNNY     70  36  28 CALM      30.21
BLUE CANYON    MOSUNNY   75  32  20 NE3       30.28S
MAMMOTH LAKES  FAIR      63  45  51 CALM      30.42R
BRIDGEPORT     FAIR      59  44  57 CALM      30.37S
$$

NVZ030-031-036-281600-
NORTHERN NEVADA

CITY           SKY/WX    TMP DP  RH WIND       PRES   REMARKS
ELKO           CLOUDY    76  46  34 CALM      30.24S
WINNEMUCCA     MOSUNNY   76  32  20 W6        30.18R
WENDOVER       PTSUNNY   81  48  32 NE8       30.19R
$$

NVZ035-037-281600-
CENTRAL NEVADA

CITY           SKY/WX    TMP DP  RH WIND       PRES   REMARKS
ELY            PTSUNNY   68  51  54 E5        30.36R
EUREKA           N/A     74  46  36 SW6       30.31R
$$

NVZ013-014-281600-
SOUTH CENTRAL NEVADA

CITY           SKY/WX    TMP DP  RH WIND       PRES   REMARKS
TONOPAH        PTSUNNY   70  45  40 N5        30.31R
$$

NVZ017-020-022-281600-
SOUTHERN NEVADA

CITY           SKY/WX    TMP DP  RH WIND       PRES   REMARKS
LAS VEGAS      PTSUNNY   85  60  42 VRB3      30.08R
N. LAS VEGAS   PTSUNNY   80  63  55 CALM      30.11R
NELLIS AFB     PTSUNNY   80  66  62 E10       30.10R
HENDERSON      PTSUNNY   81  64  55 CALM      30.14R
MERCURY        CLOUDY    80  55  42 NE9       30.17
$$



USA.gov is the U.S. government's official web portal to all federal, state and local government web resources and services.